Regional Weather Roundup
Issued by NWS Midland/Odessa, TX

Skip options and go directly to product.
Home | Oldest Version | Next Version | Current Version | All | Text Only | Save Text | Print | Product List | Glossary On

Skip product version selection by date and time.   
563
ASUS44 KMAF 201401
RWRMAF
MIDLAND AREA WEATHER ROUNDUP
NATIONAL WEATHER SERVICE MIDLAND TX
800 AM CST SAT DEC 20 2014

...IN SOUTHWEST TEXAS AND SOUTHEAST NEW MEXICO...

CITY           SKY/WX    TMP DP  RH WIND       PRES   REMARKS
ALPINE         CLEAR     34  28  78 SW5       30.19S WCI  30
ANDREWS        FOG       36  36 100 SE7       30.14S VSB 1/4 WCI  31
ARTESIA        PTCLDY    27  23  86 N3        30.15R
BIG SPRING     CLOUDY    38  37  93 CALM      30.18F
CARLSBAD       PTCLDY    29  25  85 N3        30.14R
DRYDEN           N/A     47  44  90 SE5       30.15S
FORT STOCKTON  CLEAR     37  31  78 SW12      30.14R WCI  29
GUAD PASS      NOT AVBL
HOBBS          FOG       36  36 100 SE5       30.14R VSB 1/4 WCI  32
MARFA          CLEAR     23  19  86 NW9       30.16R WCI  13
MIDLAND AIRPK  FOG       37  37 100 E3        30.16S VSB 1/2
MIDLAND INTL   FOG       37  37 100 E7        30.15R VSB 1/4 WCI  32
ODESSA         FOG       38  37  97 SE5       30.15R VSB 1/4 WCI  34
PECOS          FOG       29  28  96 CALM      30.15R VSB 3/4
PRESIDIO       FAIR      40  31  71 N8        30.14S WCI  34
SEMINOLE       FOG       37  37 100 CALM      30.14S VSB 1/2
SNYDER         CLOUDY    41  37  83 CALM      30.18S
WINK           FOG       35  32  88 SE7       30.13S VSB 1/4 WCI  29
$$
...OTHER STATIONS IN TEXAS...

CITY           SKY/WX    TMP DP  RH WIND       PRES   REMARKS
ABILENE        CLOUDY    45  37  73 CALM      30.20S
AMARILLO       FOG       32  32 100 S12       30.10S VSB 1/4 WCI  23
AUSTIN         DRIZZLE   49  45  86 N8        30.23R FOG
BROWNSVILLE    CLOUDY    59  56  89 N13       30.13R
CORPUS CHRISTI CLOUDY    52  48  86 N16       30.18F
DALLAS FTW     DRIZZLE   45  42  89 NE7       30.24R FOG
DEL RIO        CLOUDY    51  46  83 SE9       30.19R
EL PASO        PTCLDY    26  22  84 E5        30.14F WCI  20
HOUSTON INT    CLOUDY    51  48  89 N8        30.20R
LUBBOCK        CLOUDY    37  35  92 SW10      30.13S FOG     WCI  30
SAN ANGELO     CLOUDY    41  39  93 S6        30.20R WCI  37
SAN ANTONIO    CLOUDY    49  43  80 N7        30.23R
WACO           CLOUDY    47  45  93 N7        30.22F
WICHITA FALLS  NOT AVBL
$$
...OTHER LOCATIONS IN NEW MEXICO...

CITY           SKY/WX    TMP DP  RH WIND       PRES   REMARKS
ALAMAGORDO     PTCLDY    27  25  93 N3        30.14F
ALBUQUERQUE    MOCLDY    26  21  81 S5        30.16S WCI  20
CANNON AFB     MOCLDY    22  20  95 SW6       30.08S WCI  14
CLOVIS         MOCLDY    21  19  93 S3        30.08S
HOLLOMAN AFB   PTCLDY    28  23  81 N7        30.13F WCI  21
ROSWELL        PTCLDY    26  19  74 CALM      30.12R
RUIDOSO        PTCLDY    30  18  59 NW12      30.11F WCI  21
SANTA FE       PTCLDY    22  15  75 N15       30.09F WCI   9
TRUTH OR CONSE PTCLDY    30  21  69 NW5       30.15S WCI  25
TUCUMCARI      FOG       27  25  92 N7        30.08R VSB 1/4 WCI  19
$$

USA.gov is the U.S. government's official web portal to all federal, state and local government web resources and services.